Myrtle Beach Weather Center

Moon Phase Calendar



Online Cameras

 


      

Current Conditions in Myrtle Beach
8/8/2022 6:23:11 PM

85°F
Feels Like 95
Clear
Humidity
73%
Pressure
30.06"
Wind
13.8 mph (SSW)
Dew Point
76°F
UV Index
1/10 (Low)
Visibility
6 mi

Hourly Forecast

Date & Time Mon, Aug 8
6:00 PM
Mon, Aug 8
7:00 PM
Mon, Aug 8
8:00 PM
Mon, Aug 8
9:00 PM
Mon, Aug 8
10:00 PM
Mon, Aug 8
11:00 PM
Tue, Aug 9
12:00 AM
Tue, Aug 9
1:00 AM
Tue, Aug 9
2:00 AM
Tue, Aug 9
3:00 AM
Tue, Aug 9
4:00 AM
Tue, Aug 9
5:00 AM
Tue, Aug 9
6:00 AM
Tue, Aug 9
7:00 AM
Tue, Aug 9
8:00 AM
Tue, Aug 9
9:00 AM
Tue, Aug 9
10:00 AM
Tue, Aug 9
11:00 AM
Tue, Aug 9
12:00 PM
Tue, Aug 9
1:00 PM
Tue, Aug 9
2:00 PM
Tue, Aug 9
3:00 PM
Tue, Aug 9
4:00 PM
Tue, Aug 9
5:00 PM
Tue, Aug 9
6:00 PM
Tue, Aug 9
7:00 PM
Tue, Aug 9
8:00 PM
Tue, Aug 9
9:00 PM
Tue, Aug 9
10:00 PM
Tue, Aug 9
11:00 PM
Wed, Aug 10
12:00 AM
Wed, Aug 10
1:00 AM
Wed, Aug 10
2:00 AM
Wed, Aug 10
3:00 AM
Wed, Aug 10
4:00 AM
Wed, Aug 10
5:00 AM
Wed, Aug 10
6:00 AM
Wed, Aug 10
7:00 AM
Wed, Aug 10
8:00 AM
Wed, Aug 10
9:00 AM
Wed, Aug 10
10:00 AM
Wed, Aug 10
11:00 AM
Wed, Aug 10
12:00 PM
Wed, Aug 10
1:00 PM
Wed, Aug 10
2:00 PM
Wed, Aug 10
3:00 PM
Wed, Aug 10
4:00 PM
Wed, Aug 10
5:00 PM
Condition
Clear

Clear

Clear

Clear

Clear

Clear

Clear

Clear

Clear

Clear

Clear

Clear

Rain

Clear

Rain

Clear

Clear

Clear

Clear

Clear

Clear

Clouds

Clouds

Clouds

Rain

Rain

Rain

Rain

Rain

Rain

Clouds

Rain

Rain

Clouds

Rain

Clouds

Clouds

Clouds

Clouds

Clouds

Clouds

Clouds

Clouds

Clouds

Clouds

Clouds

Clouds

Clouds
Temperature 85°F85°F84°F83°F82°F81°F81°F81°F80°F80°F79°F78°F77°F77°F79°F82°F84°F86°F88°F89°F89°F88°F87°F87°F85°F84°F83°F82°F82°F81°F80°F80°F80°F80°F80°F79°F79°F78°F80°F83°F86°F89°F91°F92°F92°F91°F90°F90°F
Feels Like 95°F94°F91°F89°F87°F85°F85°F84°F84°F84°F79°F80°F79°F79°F79°F86°F89°F91°F93°F94°F95°F95°F94°F94°F91°F91°F90°F88°F88°F86°F85°F85°F80°F80°F80°F79°F80°F80°F85°F88°F92°F95°F97°F99°F101°F100°F99°F99°F
Cloudiness 0%3%5%0%0%0%0%0%0%0%0%0%0%0%0%0%1%1%1%3%3%15%22%18%24%29%30%83%88%90%76%72%77%23%40%54%49%45%50%53%48%54%53%54%56%37%28%24%
Visibility 6 mi6 mi6 mi6 mi6 mi6 mi6 mi6 mi6 mi6 mi6 mi6 mi6 mi6 mi6 mi6 mi6 mi6 mi6 mi6 mi6 mi6 mi6 mi6 mi6 mi6 mi6 mi6 mi6 mi6 mi6 mi6 mi6 mi6 mi6 mi6 mi6 mi6 mi6 mi6 mi6 mi6 mi6 mi6 mi6 mi6 mi6 mi6 mi
Precipitation 2%2%5%18%14%10%10%6%6%2%6%18%30%22%26%17%25%25%21%17%12%20%2%3%37%36%57%48%56%58%62%56%56%46%46%46%38%34%34%30%30%23%19%19%19%0%0%0%
Humidity 73%71%70%70%69%69%70%71%73%75%77%80%82%82%78%71%64%59%57%55%56%58%62%63%67%69%71%73%75%78%81%82%82%81%80%81%83%83%79%68%60%55%52%52%54%57%59%59%
Dew Point 76°F75°F73°F72°F71°F70°F70°F70°F71°F71°F71°F71°F71°F71°F72°F71°F71°F70°F70°F70°F70°F71°F72°F72°F72°F73°F73°F73°F73°F74°F74°F74°F74°F74°F73°F73°F73°F73°F73°F72°F71°F70°F70°F71°F71°F72°F73°F72°F
Pressure 30.06"30.06"30.06"30.09"30.09"30.09"30.09"30.06"30.06"30.09"30.09"30.09"30.09"30.12"30.12"30.12"30.12"30.12"30.12"30.12"30.09"30.09"30.06"30.06"30.06"30.06"30.09"30.09"30.09"30.09"30.09"30.09"30.09"30.09"30.09"30.09"30.12"30.12"30.15"30.15"30.15"30.15"30.12"30.12"30.09"30.06"30.06"30.03"
Wind Speed 12.3 mph11.3 mph10.9 mph10.3 mph10.4 mph11.1 mph11.2 mph10.8 mph10.6 mph10.4 mph8.9 mph7.5 mph6.6 mph5.8 mph6.4 mph6.9 mph7 mph7 mph8.5 mph10.1 mph12.1 mph14.4 mph15.2 mph15.4 mph13.8 mph13.7 mph11.8 mph10.6 mph11.2 mph10.5 mph9.4 mph9.3 mph9.7 mph10.4 mph10 mph9.4 mph9.1 mph8.7 mph9.6 mph10 mph9 mph7.4 mph7.1 mph8.9 mph12.7 mph15.3 mph16.4 mph16.4 mph
Wind
Direction
188°
S
193°
SSW
193°
SSW
195°
SSW
196°
SSW
201°
SSW
205°
SSW
207°
SSW
212°
SSW
218°
SW
225°
SW
237°
WSW
242°
WSW
242°
WSW
239°
WSW
236°
SW
231°
SW
218°
SW
198°
SSW
184°
S
178°
S
174°
S
177°
S
184°
S
192°
SSW
190°
S
200°
SSW
203°
SSW
202°
SSW
215°
SW
219°
SW
223°
SW
225°
SW
226°
SW
234°
SW
240°
WSW
245°
WSW
249°
WSW
255°
WSW
262°
W
262°
W
247°
WSW
221°
SW
197°
SSW
186°
S
182°
S
183°
S
187°
S

Daily Forecast

Date High Low Precip. Humidity
Today
Aug 8

Rain
88 °F
77 °F
61%
55%
Tuesday
Aug 9

Rain
89 °F
77 °F
58%
55%
Wednesday
Aug 10

Rain
92 °F
78 °F
62%
54%
Thursday
Aug 11

Rain
93 °F
77 °F
86%
47%
Friday
Aug 12

Rain
90 °F
74 °F
89%
46%
Saturday
Aug 13

Rain
84 °F
72 °F
25%
30%
Sunday
Aug 14

Clear
84 °F
74 °F
0%
41%
Monday
Aug 15

Clouds
85 °F
73 °F
0%
44%
Tuesday
Aug 16

Clouds
86 °F
77 °F
0%
45%
Wednesday
Aug 17

Rain
86 °F
78 °F
100%
60%
Thursday
Aug 18

Rain
78 °F
71 °F
100%
73%
Friday
Aug 19

Rain
77 °F
68 °F
98%
74%
Saturday
Aug 20

Clouds
83 °F
70 °F
10%
58%
Sunday
Aug 21

Rain
83 °F
76 °F
87%
58%
Monday
Aug 22

Rain
78 °F
73 °F
94%
77%
Tuesday
Aug 23

Rain
79 °F
73 °F
95%
76%

Temperature 8-14 Day Outlook



Precipitation 8-14 Day Outlook




Quick Links
Myrtle Beach News
Myrtle Beach Photos
Myrtle Beach Videos




About Us
Contact Us
Site Map
Search Site
Advertise With Us
   
MyrtleBeach.USCoast.info
THE MYRTLE BEACH WEBSITE

Copyright 2022, Coastal Town
Privacy    |    Legal